Flag for Austria Weather past 2 weeks in Judenburg, Styria, Austria

Now
55 °F

Broken clouds.


Feels Like: 54 °F
Forecast: 37 / 69 °F
Wind: 7 mph from South

Location: Zeltweg


UV Index: 3 (Moderate)

Visibility: 9 mi


Pressure: 29.74 "Hg

Humidity: 67%

Dew point: 45 °F

Location of JudenburgLocation

Historic Weather in Judenburg

°F

Judenburg temperature yesterday

Maximum temperature yesterday: 48 °F (at 2:50 PM)
Minimum temperature yesterday: 43 °F (at 4:50 AM)
Average temperature yesterday: 45 °F

Past Weeks' High & Low Weather Summary

 TemperatureHumidityPressure
High72 °F (Apr 8, 2:50 PM)100% (Apr 7, 7:20 AM)30.24 "Hg (Apr 7, 7:20 AM)
Low25 °F (Apr 18, 5:50 AM)20% (Apr 18, 1:50 PM)29.68 "Hg (Apr 18, 4:20 PM)
Average48 °F63%29.98 "Hg
* Reported Apr 6 2:50 PM — Apr 21 2:20 PM, Judenburg, Weather by CustomWeather, © 2014

Note: Actual official high and low records may vary slightly from our data, if they occured in-between our weather recording intervals... More about our weather records

Advertising

Historic Weather Conditions — Data for Previous 24 hours

 ConditionsComfort  
Time TempWeatherWind HumidityBarometerVisibility
2:20 PM
Apr 21
55 °FBroken clouds.7 mph59%29.74 "Hg12 mi
1:50 PM55 °FBroken clouds.6 mph63%29.74 "Hg12 mi
1:20 PM55 °FBroken clouds.7 mph67%29.74 "Hg12 mi
12:50 PM54 °FBroken clouds.8 mph63%29.74 "Hg12 mi
12:20 PM54 °FBroken clouds.9 mph67%29.74 "Hg12 mi
11:50 AM54 °FBroken clouds.9 mph67%29.74 "Hg9 mi
11:20 AM55 °FBroken clouds.5 mph72%29.74 "Hg9 mi
10:50 AM52 °FBroken clouds.2 mph77%29.74 "Hg9 mi
10:20 AM50 °FBroken clouds.2 mph82%29.74 "Hg7 mi
9:50 AM50 °FScattered clouds.1 mph82%29.74 "Hg7 mi
9:20 AM48 °FScattered clouds.2 mph82%29.74 "Hg7 mi
8:50 AM46 °FScattered clouds.2 mph93%29.74 "Hg5 mi
8:20 AM45 °FPartly sunny.2 mph93%29.74 "Hg4 mi
7:50 AM45 °FFog.2 mph93%29.74 "Hg3 mi
7:20 AM45 °FFog.3 mph93%29.74 "Hg3 mi
6:50 AM43 °FFog.2 mph100%29.74 "Hg3 mi
5:50 AM43 °FPartly cloudy.3 mph100%29.74 "Hg5 mi
4:50 AM43 °FMostly cloudy.2 mph100%29.74 "Hg6 mi
10:50 PM
Apr 20
45 °FPartly cloudy.2 mph100%29.80 "Hg6 mi
9:50 PM45 °FLow clouds.1 mph93%29.80 "Hg6 mi
8:50 PM46 °FLow clouds.1 mph87%29.80 "Hg6 mi
7:50 PM46 °FLow clouds.2 mph87%29.80 "Hg9 mi
7:20 PM46 °FMore clouds than sun.2 mph87%29.77 "Hg12 mi
6:50 PM46 °FLow clouds.3 mph82%29.77 "Hg12 mi
6:20 PM46 °FMore clouds than sun.2 mph87%29.77 "Hg12 mi
5:50 PM46 °FMore clouds than sun.2 mph87%29.80 "Hg9 mi
5:20 PM46 °FMore clouds than sun.1 mph87%29.80 "Hg9 mi
4:50 PM46 °FMore clouds than sun.2 mph87%29.80 "Hg9 mi
4:20 PM46 °FMore clouds than sun.2 mph87%29.80 "Hg9 mi
3:50 PM46 °FLight rain. More clouds than sun.2 mph82%29.80 "Hg9 mi
3:20 PM46 °FLight rain. More clouds than sun.1 mph82%29.80 "Hg9 mi
Weather by CustomWeather, © 2014

See weather overview